Location: Maccacari
(45.1333°N, 11.1333°E)
Time: 14:59:00
(UTC+00:00)

S-56A Canister/Altair - Pass Details

Date: 23 January 2021
Orbit: 631 x 2501 km, 38.9° (Epoch: 01 March)

Event Time Altitude Azimuth Distance (km) Brightness Sun altitude
Rises 03:36:17 0° 252° (WSW) 2,913 - -33.0°
Reaches altitude 10° 03:38:35 10° 244° (WSW) 2,014 - -32.6°
Maximum altitude 03:42:46 40° 174° (S) 1,004 - -31.9°
Exits shadow 03:44:13 32° 135° (SE) 1,217 8.8 -31.7°
Drops below altitude 10° 03:47:45 10° 105° (ESE) 2,411 10.9 -31.0°
Sets 03:50:45 0° 99° (E) 3,574 12.1 -30.5°
